McComb, MS

5:57 PM CDT on April 28, 2017 (GMT -0500)
McComb-Pike County-Lewis

Weather History for KMCB - January, 2012

Change the Weather History Date:

Friday, January 6, 2012

  Actual Average Record
Temperature  
Mean Temperature 56 °F -  
Max Temperature 71 °F 61 °F 79 °F (1989)
Min Temperature 42 °F 38 °F 19 °F (2014)
Degree Days  
Heating Degree Days 8    
Growing Degree Days 6 (Base 50)    
Moisture  
Dew Point 50 °F    
Average Humidity 89    
Maximum Humidity 100    
Minimum Humidity 57    
Precipitation  
Precipitation 0.01 in - - ()
Sea Level Pressure  
Sea Level Pressure 30.12 in    
Wind  
Wind Speed 1 mph (SSW)    
Max Wind Speed 8 mph    
Max Gust Speed -    
Visibility 6 miles    
Events Fog    
Averages and records for this station are not official NWS values.
T = Trace of Precipitation, MM = Missing Value Source: NWS Daily Summary

Daily Weather History Graph

Daily Weather History Graph

Search for Another Location

Airport or City:

Trip Planner

Search our weather history database for the weather conditions in past years. The results will help you decide how hot, cold, wet, or windy it might be!

Date:

Astronomy

Jan. 06, 2012 Rise Set
Actual Time 7:01 AM CST 5:14 PM CST
Civil Twilight 6:34 AM CST 5:40 PM CST
Nautical Twilight 6:04 AM CST 6:10 PM CST
Astronomical Twilight 5:35 AM CST 6:40 PM CST
Moon 3:06 PM CST (1/6) 4:40 AM CST (1/6)
Length of Visible Light 11h 05m
Length of Day
10h 12m
Waxing Gibbous, 93% of the Moon is Illuminated
Jan 6
Waxing Gibbous
Jan 9
Full
Jan 16
Last Quarter
Jan 23
New
Jan 30
First Quarter

Hourly Weather History & Observations

Time (CST) Temp. Dew Point Humidity Pressure Visibility Wind Dir Wind Speed Gust Speed Precip Events Conditions
12:53 AM 43.0 °F 39.0 °F 86% 30.14 in 10.0 mi Calm Calm - N/A   Clear
2:53 AM 43.0 °F 39.9 °F 89% 30.12 in 10.0 mi Calm Calm - N/A   Clear
3:10 AM 42.8 °F 39.2 °F 87% 30.13 in 10.0 mi Calm Calm - N/A   Scattered Clouds
3:19 AM 42.8 °F 39.2 °F 87% 30.12 in 10.0 mi Calm Calm - N/A   Mostly Cloudy
3:43 AM 42.8 °F 41.0 °F 93% 30.12 in 1.5 mi Calm Calm - N/A   Mostly Cloudy
3:48 AM 42.8 °F 42.8 °F 100% 30.12 in 0.2 mi Calm Calm - N/A Fog Fog
3:53 AM 44.1 °F 43.0 °F 96% 30.12 in 0.2 mi Calm Calm - N/A Fog Fog
4:53 AM 45.0 °F 45.0 °F 100% 30.13 in 0.2 mi Calm Calm - N/A Fog Fog
5:53 AM 46.0 °F 46.0 °F 100% 30.14 in 0.2 mi Calm Calm - N/A Fog Fog
6:53 AM 46.9 °F 46.0 °F 97% 30.14 in 0.2 mi Calm Calm - N/A Fog Fog
7:53 AM 48.0 °F 48.0 °F 100% 30.16 in 0.2 mi Calm Calm - N/A Fog Fog
8:53 AM 50.0 °F 50.0 °F 100% 30.17 in 0.2 mi Calm Calm - N/A Fog Fog
9:20 AM 53.6 °F 53.6 °F 100% 30.18 in 0.5 mi Calm Calm - 0.01 in Fog Fog
9:30 AM 53.6 °F 53.6 °F 100% 30.18 in 1.2 mi Calm Calm - 0.01 in   Overcast
9:45 AM 53.6 °F 53.6 °F 100% 30.19 in 0.8 mi Calm Calm - 0.01 in   Overcast
9:53 AM 55.0 °F 54.0 °F 96% 30.18 in 0.5 mi SSW 3.5 mph - 0.01 in Fog Fog
10:04 AM 55.4 °F 55.4 °F 100% 30.18 in 2.0 mi Calm Calm - N/A   Overcast
10:14 AM 55.4 °F 55.4 °F 100% 30.18 in 6.0 mi Calm Calm - N/A   Overcast
10:44 AM 57.2 °F 55.4 °F 94% 30.17 in 10.0 mi SSW 3.5 mph - N/A   Partly Cloudy
10:53 AM 57.9 °F 55.9 °F 93% 30.17 in 10.0 mi Calm Calm - N/A   Partly Cloudy
12:53 PM 66.9 °F 55.9 °F 68% 30.11 in 10.0 mi SSW 6.9 mph - N/A   Overcast
1:53 PM 70.0 °F 54.0 °F 57% 30.08 in 10.0 mi SSW 8.1 mph - N/A   Mostly Cloudy
2:53 PM 71.1 °F 55.0 °F 57% 30.06 in 10.0 mi SSW 8.1 mph - N/A   Mostly Cloudy
3:53 PM 70.0 °F 54.0 °F 57% 30.06 in 10.0 mi South 8.1 mph - N/A   Partly Cloudy
4:53 PM 66.9 °F 54.0 °F 63% 30.06 in 10.0 mi SSW 4.6 mph - N/A   Mostly Cloudy
5:53 PM 61.0 °F 55.0 °F 81% 30.06 in 10.0 mi South 3.5 mph - N/A   Clear
6:53 PM 61.0 °F 55.0 °F 81% 30.06 in 10.0 mi Calm Calm - N/A   Mostly Cloudy
7:53 PM 55.9 °F 53.1 °F 90% 30.06 in 10.0 mi South 3.5 mph - N/A   Mostly Cloudy
8:53 PM 57.9 °F 55.0 °F 90% 30.07 in 10.0 mi SSW 3.5 mph - N/A   Clear
9:53 PM 55.9 °F 54.0 °F 93% 30.06 in 10.0 mi South 4.6 mph - N/A   Clear
10:53 PM 55.9 °F 54.0 °F 93% 30.06 in 10.0 mi Calm Calm - N/A   Clear
11:53 PM 54.0 °F 52.0 °F 93% 30.05 in 8.0 mi Calm Calm - N/A   Clear